Time,TemperatureF,DewpointF,PressureIn,WindDirection,WindDirectionDegrees,WindSpeedMPH,WindSpeedGustMPH,Humidity,HourlyPrecipIn,Conditions,Clouds,dailyrainin,SoftwareType,DateUTC
2014-09-15 00:02:00,57.4,53.8,30.80,SW,236,0.0,0.0,88,0.00,,,0.00,meteobridge,2014-09-15 04:02:00,
2014-09-15 00:07:00,57.2,53.6,30.80,SW,236,0.0,0.0,88,0.00,,,0.00,meteobridge,2014-09-15 04:07:00,
2014-09-15 00:12:00,57.0,53.8,30.80,SW,235,0.0,0.0,89,0.00,,,0.00,meteobridge,2014-09-15 04:12:00,
2014-09-15 00:17:00,57.0,53.8,30.80,SW,235,0.0,0.0,89,0.00,,,0.00,meteobridge,2014-09-15 04:17:00,
2014-09-15 00:22:00,56.8,54.0,30.80,SW,233,0.0,0.0,90,0.00,,,0.00,meteobridge,2014-09-15 04:22:00,
2014-09-15 00:27:00,56.5,53.6,30.80,SW,233,0.0,0.0,90,0.00,,,0.00,meteobridge,2014-09-15 04:27:00,
2014-09-15 00:32:00,55.9,53.1,30.80,SW,233,0.0,0.0,90,0.00,,,0.00,meteobridge,2014-09-15 04:32:00,
2014-09-15 00:37:00,55.8,53.2,30.80,SW,233,0.0,0.0,91,0.00,,,0.00,meteobridge,2014-09-15 04:37:00,
2014-09-15 00:42:00,55.4,53.1,30.80,SW,233,0.0,0.0,92,0.00,,,0.00,meteobridge,2014-09-15 04:42:00,
2014-09-15 00:47:00,55.2,53.2,30.80,SW,233,0.0,0.0,93,0.00,,,0.00,meteobridge,2014-09-15 04:47:00,
2014-09-15 00:52:00,55.4,53.4,30.79,SW,233,0.0,0.0,93,0.00,,,0.00,meteobridge,2014-09-15 04:52:00,
2014-09-15 00:57:00,55.4,53.4,30.79,SW,233,0.0,0.0,93,0.00,,,0.00,meteobridge,2014-09-15 04:57:00,
2014-09-15 01:03:00,55.6,53.6,30.79,SW,233,0.0,0.0,93,0.00,,,0.00,meteobridge,2014-09-15 05:03:00,
2014-09-15 01:08:00,55.8,53.8,30.79,SW,233,0.0,0.0,93,0.00,,,0.00,meteobridge,2014-09-15 05:08:00,
2014-09-15 01:13:00,55.9,53.6,30.80,SW,233,0.0,0.0,92,0.00,,,0.00,meteobridge,2014-09-15 05:13:00,
2014-09-15 01:18:00,55.9,53.6,30.80,SW,233,0.0,0.0,92,0.00,,,0.00,meteobridge,2014-09-15 05:18:00,
2014-09-15 01:23:00,55.8,53.2,30.80,SW,233,0.0,0.0,91,0.00,,,0.00,meteobridge,2014-09-15 05:23:00,
2014-09-15 01:28:00,55.6,53.2,30.80,SW,233,0.0,0.0,92,0.00,,,0.00,meteobridge,2014-09-15 05:28:00,
2014-09-15 01:33:00,55.0,52.7,30.80,SW,233,0.0,0.0,92,0.00,,,0.00,meteobridge,2014-09-15 05:33:00,
2014-09-15 01:38:00,54.9,52.5,30.80,SW,233,0.0,0.0,92,0.00,,,0.00,meteobridge,2014-09-15 05:38:00,
2014-09-15 01:43:00,54.5,52.5,30.80,SW,233,0.0,0.0,93,0.00,,,0.00,meteobridge,2014-09-15 05:43:00,
2014-09-15 01:48:00,54.3,52.3,30.81,SW,233,0.0,0.0,93,0.00,,,0.00,meteobridge,2014-09-15 05:48:00,
2014-09-15 01:53:00,54.1,52.2,30.80,SW,233,0.0,0.0,93,0.00,,,0.00,meteobridge,2014-09-15 05:53:00,
2014-09-15 01:58:00,54.0,52.3,30.81,SW,232,0.0,0.0,94,0.00,,,0.00,meteobridge,2014-09-15 05:58:00,
2014-09-15 02:03:00,53.8,52.2,30.81,SW,233,0.0,0.0,94,0.00,,,0.00,meteobridge,2014-09-15 06:03:00,
2014-09-15 02:08:00,53.8,52.3,30.81,SW,233,0.0,0.0,95,0.00,,,0.00,meteobridge,2014-09-15 06:08:00,
2014-09-15 02:13:00,53.8,52.3,30.81,SW,233,0.0,0.0,95,0.00,,,0.00,meteobridge,2014-09-15 06:13:00,
2014-09-15 02:18:00,53.6,52.2,30.81,SW,233,0.0,0.0,95,0.00,,,0.00,meteobridge,2014-09-15 06:18:00,
2014-09-15 02:23:00,53.4,52.0,30.81,SW,233,0.0,0.0,95,0.00,,,0.00,meteobridge,2014-09-15 06:23:00,
2014-09-15 02:28:00,53.4,52.0,30.81,SW,233,0.0,0.0,95,0.00,,,0.00,meteobridge,2014-09-15 06:28:00,
2014-09-15 02:33:00,53.2,51.8,30.81,SW,233,0.0,0.0,95,0.00,,,0.00,meteobridge,2014-09-15 06:33:00,
2014-09-15 02:38:00,53.2,51.8,30.81,SW,233,0.0,0.0,95,0.00,,,0.00,meteobridge,2014-09-15 06:38:00,
2014-09-15 02:43:00,53.2,51.8,30.81,SW,233,0.0,0.0,95,0.00,,,0.00,meteobridge,2014-09-15 06:43:00,
2014-09-15 02:48:00,53.2,51.8,30.80,SW,232,0.0,0.0,95,0.00,,,0.00,meteobridge,2014-09-15 06:48:00,
2014-09-15 02:53:00,53.2,52.2,30.80,SW,232,0.0,0.0,96,0.00,,,0.00,meteobridge,2014-09-15 06:53:00,
2014-09-15 02:58:00,53.2,52.2,30.80,SW,232,0.0,0.0,96,0.00,,,0.00,meteobridge,2014-09-15 06:58:00,
2014-09-15 03:03:00,53.2,52.2,30.80,SW,233,0.0,0.0,96,0.00,,,0.00,meteobridge,2014-09-15 07:03:00,
2014-09-15 03:08:00,53.1,52.0,30.80,SW,231,0.0,0.0,96,0.00,,,0.00,meteobridge,2014-09-15 07:08:00,
2014-09-15 03:13:00,52.9,51.8,30.80,SW,231,0.0,0.0,96,0.00,,,0.00,meteobridge,2014-09-15 07:13:00,
2014-09-15 03:18:00,52.7,51.6,30.80,SW,231,0.0,0.0,96,0.00,,,0.00,meteobridge,2014-09-15 07:18:00,
2014-09-15 03:23:00,52.5,51.4,30.80,SW,231,0.0,0.0,96,0.00,,,0.00,meteobridge,2014-09-15 07:23:00,
2014-09-15 03:28:00,52.5,51.4,30.80,SW,231,0.0,0.0,96,0.00,,,0.00,meteobridge,2014-09-15 07:28:00,
2014-09-15 03:33:00,52.3,51.3,30.80,SW,231,0.0,0.0,96,0.00,,,0.00,meteobridge,2014-09-15 07:33:00,
2014-09-15 03:38:00,52.2,51.1,30.81,SW,231,0.0,0.0,96,0.00,,,0.00,meteobridge,2014-09-15 07:38:00,
2014-09-15 03:43:00,52.2,51.1,30.81,SW,231,0.0,0.0,96,0.00,,,0.00,meteobridge,2014-09-15 07:43:00,
2014-09-15 03:48:00,52.0,50.9,30.81,SW,225,0.0,0.0,96,0.00,,,0.00,meteobridge,2014-09-15 07:48:00,
2014-09-15 03:53:00,52.0,50.9,30.81,SW,225,0.0,0.0,96,0.00,,,0.00,meteobridge,2014-09-15 07:53:00,
2014-09-15 03:58:00,51.8,50.7,30.81,SW,225,0.0,0.0,96,0.00,,,0.00,meteobridge,2014-09-15 07:58:00,
2014-09-15 04:03:00,51.6,50.5,30.80,SW,225,0.0,0.0,96,0.00,,,0.00,meteobridge,2014-09-15 08:03:00,
2014-09-15 04:04:00,51.6,50.5,30.80,SW,225,0.0,0.0,96,0.00,,,0.00,meteobridge,2014-09-15 08:04:00,
2014-09-15 04:09:00,51.4,50.4,30.80,SW,225,0.0,0.0,96,0.00,,,0.00,meteobridge,2014-09-15 08:09:00,
2014-09-15 04:14:00,51.3,50.2,30.81,SW,225,0.0,0.0,96,0.00,,,0.00,meteobridge,2014-09-15 08:14:00,
2014-09-15 04:20:00,51.3,50.2,30.80,SW,225,0.0,0.0,96,0.00,,,0.00,meteobridge,2014-09-15 08:20:00,
2014-09-15 04:25:00,51.3,50.2,30.80,SW,225,0.0,0.0,96,0.00,,,0.00,meteobridge,2014-09-15 08:25:00,
2014-09-15 04:30:00,51.1,50.0,30.80,SW,225,0.0,0.0,96,0.00,,,0.00,meteobridge,2014-09-15 08:30:00,
2014-09-15 04:35:00,51.1,50.0,30.80,SW,225,0.0,0.0,96,0.00,,,0.00,meteobridge,2014-09-15 08:35:00,
2014-09-15 04:40:00,50.9,49.8,30.80,SW,225,0.0,0.0,96,0.00,,,0.00,meteobridge,2014-09-15 08:40:00,
2014-09-15 04:45:00,50.7,49.6,30.80,SW,225,0.0,0.0,96,0.00,,,0.00,meteobridge,2014-09-15 08:45:00,
2014-09-15 04:50:00,50.7,49.6,30.81,SW,225,0.0,0.0,96,0.00,,,0.00,meteobridge,2014-09-15 08:50:00,
2014-09-15 04:55:00,50.5,49.5,30.81,SW,225,0.0,0.0,96,0.00,,,0.00,meteobridge,2014-09-15 08:55:00,
2014-09-15 05:00:00,50.4,49.3,30.81,SW,225,0.0,0.0,96,0.00,,,0.00,meteobridge,2014-09-15 09:00:00,
2014-09-15 05:05:00,50.4,49.3,30.81,SW,225,0.0,0.0,96,0.00,,,0.00,meteobridge,2014-09-15 09:05:00,
2014-09-15 05:10:00,50.4,49.3,30.81,SW,225,0.0,0.0,96,0.00,,,0.00,meteobridge,2014-09-15 09:10:00,
2014-09-15 05:15:00,50.2,49.1,30.81,SW,225,0.0,0.0,96,0.00,,,0.00,meteobridge,2014-09-15 09:15:00,
2014-09-15 05:20:00,50.2,49.3,30.81,SW,225,0.0,0.0,97,0.00,,,0.00,meteobridge,2014-09-15 09:20:00,
2014-09-15 05:25:00,50.2,49.3,30.81,SW,225,0.0,0.0,97,0.00,,,0.00,meteobridge,2014-09-15 09:25:00,
2014-09-15 05:30:00,50.4,49.5,30.81,SW,225,0.0,0.0,97,0.00,,,0.00,meteobridge,2014-09-15 09:30:00,
2014-09-15 05:35:00,50.4,49.5,30.81,SW,225,0.0,0.0,97,0.00,,,0.00,meteobridge,2014-09-15 09:35:00,
2014-09-15 05:40:00,50.5,49.6,30.81,SW,225,0.0,0.0,97,0.00,,,0.00,meteobridge,2014-09-15 09:40:00,
2014-09-15 05:45:00,50.5,49.6,30.81,SW,225,0.0,0.0,97,0.00,,,0.00,meteobridge,2014-09-15 09:45:00,
2014-09-15 05:50:00,50.7,49.8,30.81,SW,225,0.0,0.0,97,0.00,,,0.00,meteobridge,2014-09-15 09:50:00,
2014-09-15 05:56:00,50.5,49.6,30.82,SW,225,0.0,0.0,97,0.00,,,0.00,meteobridge,2014-09-15 09:56:00,
2014-09-15 06:01:00,50.7,49.8,30.82,SW,225,0.0,0.0,97,0.00,,,0.00,meteobridge,2014-09-15 10:01:00,
2014-09-15 06:06:00,50.7,49.8,30.82,SW,225,0.0,0.0,97,0.00,,,0.00,meteobridge,2014-09-15 10:06:00,
2014-09-15 06:11:00,50.7,49.8,30.82,SW,225,0.0,0.0,97,0.00,,,0.00,meteobridge,2014-09-15 10:11:00,
2014-09-15 06:16:00,50.7,49.8,30.82,SW,225,0.0,0.0,97,0.00,,,0.00,meteobridge,2014-09-15 10:16:00,
2014-09-15 06:21:00,50.7,49.8,30.82,SW,225,0.0,0.0,97,0.00,,,0.00,meteobridge,2014-09-15 10:21:00,
2014-09-15 06:26:00,50.7,49.8,30.83,SW,225,0.0,0.0,97,0.00,,,0.00,meteobridge,2014-09-15 10:26:00,
2014-09-15 06:31:00,50.5,49.6,30.83,SW,229,0.0,0.0,97,0.00,,,0.00,meteobridge,2014-09-15 10:31:00,
2014-09-15 06:36:00,50.5,49.6,30.83,SW,226,0.0,0.0,97,0.00,,,0.00,meteobridge,2014-09-15 10:36:00,
2014-09-15 06:41:00,50.4,49.5,30.83,SW,230,0.0,0.0,97,0.00,,,0.00,meteobridge,2014-09-15 10:41:00,
2014-09-15 06:46:00,50.2,49.3,30.83,SW,224,0.0,0.0,97,0.00,,,0.00,meteobridge,2014-09-15 10:46:00,
2014-09-15 06:51:00,50.2,49.3,30.83,SW,227,0.0,0.0,97,0.00,,,0.00,meteobridge,2014-09-15 10:51:00,
2014-09-15 06:56:00,50.2,49.3,30.83,SW,226,0.0,0.0,97,0.00,,,0.00,meteobridge,2014-09-15 10:56:00,
2014-09-15 07:01:00,50.0,49.1,30.83,SW,225,0.0,0.0,97,0.00,,,0.00,meteobridge,2014-09-15 11:01:00,
2014-09-15 07:06:00,49.8,48.9,30.84,SW,227,0.0,0.0,97,0.00,,,0.00,meteobridge,2014-09-15 11:06:00,
2014-09-15 07:11:00,49.8,48.9,30.83,SW,227,0.0,0.0,97,0.00,,,0.00,meteobridge,2014-09-15 11:11:00,
2014-09-15 07:16:00,49.8,48.9,30.83,SW,227,0.0,0.0,97,0.00,,,0.00,meteobridge,2014-09-15 11:16:00,
2014-09-15 07:21:00,49.8,48.9,30.83,SW,227,0.0,0.0,97,0.00,,,0.00,meteobridge,2014-09-15 11:21:00,
2014-09-15 07:26:00,49.8,48.9,30.83,SW,227,0.0,0.0,97,0.00,,,0.00,meteobridge,2014-09-15 11:26:00,
2014-09-15 07:31:00,49.8,48.9,30.83,SW,227,0.0,0.0,97,0.00,,,0.00,meteobridge,2014-09-15 11:31:00,
2014-09-15 07:35:00,49.8,48.9,30.83,SW,227,0.0,0.0,97,0.00,,,0.00,meteobridge,2014-09-15 11:35:00,
2014-09-15 07:40:00,49.8,48.9,30.83,SW,227,0.0,0.0,97,0.00,,,0.00,meteobridge,2014-09-15 11:40:00,
2014-09-15 07:45:00,49.8,48.9,30.84,SW,227,0.0,0.0,97,0.00,,,0.00,meteobridge,2014-09-15 11:45:00,
2014-09-15 07:50:00,50.2,49.3,30.84,SW,227,0.0,0.0,97,0.00,,,0.00,meteobridge,2014-09-15 11:50:00,
2014-09-15 07:55:00,50.4,49.5,30.84,SW,227,0.0,0.0,97,0.00,,,0.00,meteobridge,2014-09-15 11:55:00,
2014-09-15 07:57:00,50.4,49.5,30.84,SW,227,0.0,0.0,97,0.00,,,0.00,meteobridge,2014-09-15 11:57:00,
2014-09-15 08:02:00,50.5,49.6,30.84,SW,227,0.0,0.0,97,0.00,,,0.00,meteobridge,2014-09-15 12:02:00,
2014-09-15 08:07:00,50.7,50.2,30.84,SW,227,0.0,0.0,98,0.00,,,0.00,meteobridge,2014-09-15 12:07:00,
2014-09-15 08:12:00,51.1,50.5,30.84,SW,227,0.0,0.0,98,0.00,,,0.00,meteobridge,2014-09-15 12:12:00,
2014-09-15 08:17:00,51.3,50.7,30.84,SW,227,0.0,0.0,98,0.00,,,0.00,meteobridge,2014-09-15 12:17:00,
2014-09-15 08:22:00,51.4,50.9,30.84,SW,227,0.0,0.0,98,0.00,,,0.00,meteobridge,2014-09-15 12:22:00,
2014-09-15 08:27:00,51.6,51.1,30.84,SW,227,0.0,0.0,98,0.00,,,0.00,meteobridge,2014-09-15 12:27:00,
2014-09-15 08:32:00,52.0,51.4,30.84,SW,223,0.0,0.0,98,0.00,,,0.00,meteobridge,2014-09-15 12:32:00,
2014-09-15 08:37:00,52.2,51.6,30.84,SW,223,0.0,0.0,98,0.00,,,0.00,meteobridge,2014-09-15 12:37:00,
2014-09-15 08:42:00,52.3,51.8,30.84,SW,222,0.0,0.0,98,0.00,,,0.00,meteobridge,2014-09-15 12:42:00,
2014-09-15 08:47:00,52.3,51.8,30.84,SW,222,0.0,0.0,98,0.00,,,0.00,meteobridge,2014-09-15 12:47:00,
2014-09-15 08:52:00,52.7,52.2,30.84,SW,223,0.0,0.0,98,0.00,,,0.00,meteobridge,2014-09-15 12:52:00,
2014-09-15 08:55:00,52.9,52.3,30.84,SW,223,0.0,0.0,98,0.00,,,0.00,meteobridge,2014-09-15 12:55:00,
2014-09-15 09:00:00,53.1,52.5,30.84,SW,222,0.0,0.0,98,0.00,,,0.00,meteobridge,2014-09-15 13:00:00,
2014-09-15 09:05:00,53.2,52.7,30.84,SW,222,0.0,0.0,98,0.00,,,0.00,meteobridge,2014-09-15 13:05:00,
2014-09-15 09:10:00,53.4,52.9,30.84,SW,223,0.0,0.0,98,0.00,,,0.00,meteobridge,2014-09-15 13:10:00,
2014-09-15 09:15:00,53.6,53.1,30.84,SW,223,0.0,0.0,98,0.00,,,0.00,meteobridge,2014-09-15 13:15:00,
2014-09-15 09:20:00,53.8,53.2,30.84,SW,223,0.0,0.0,98,0.00,,,0.00,meteobridge,2014-09-15 13:20:00,
2014-09-15 09:25:00,54.0,53.4,30.84,SW,223,0.0,0.0,98,0.00,,,0.00,meteobridge,2014-09-15 13:25:00,
2014-09-15 09:30:00,54.1,53.6,30.84,SW,223,0.0,0.0,98,0.00,,,0.00,meteobridge,2014-09-15 13:30:00,
2014-09-15 09:35:00,54.1,53.6,30.84,SW,223,0.0,0.0,98,0.00,,,0.00,meteobridge,2014-09-15 13:35:00,
2014-09-15 09:40:00,54.3,53.8,30.84,SW,223,0.0,0.0,98,0.00,,,0.00,meteobridge,2014-09-15 13:40:00,
2014-09-15 09:45:00,54.7,54.1,30.84,SW,223,0.0,0.0,98,0.00,,,0.00,meteobridge,2014-09-15 13:45:00,
2014-09-15 09:50:00,54.9,54.3,30.84,SW,223,0.0,0.0,98,0.00,,,0.00,meteobridge,2014-09-15 13:50:00,
2014-09-15 09:55:00,55.0,54.5,30.84,SW,223,0.0,0.0,98,0.00,,,0.00,meteobridge,2014-09-15 13:55:00,
2014-09-15 10:00:00,55.2,54.7,30.84,SW,223,0.0,0.0,98,0.00,,,0.00,meteobridge,2014-09-15 14:00:00,
2014-09-15 10:05:00,55.6,55.0,30.84,SW,225,0.0,0.0,98,0.00,,,0.00,meteobridge,2014-09-15 14:05:00,
2014-09-15 10:10:00,55.9,55.4,30.84,SW,225,0.0,0.0,98,0.00,,,0.00,meteobridge,2014-09-15 14:10:00,
2014-09-15 10:15:00,56.1,55.2,30.83,SW,225,0.0,0.0,97,0.00,,,0.00,meteobridge,2014-09-15 14:15:00,
2014-09-15 10:20:00,56.5,55.6,30.83,SW,225,0.0,0.0,97,0.00,,,0.00,meteobridge,2014-09-15 14:20:00,
2014-09-15 10:25:00,56.8,55.9,30.84,SW,225,0.0,0.0,97,0.00,,,0.00,meteobridge,2014-09-15 14:25:00,
2014-09-15 10:30:00,57.4,56.3,30.84,SW,225,0.0,0.0,96,0.00,,,0.00,meteobridge,2014-09-15 14:30:00,
2014-09-15 10:36:00,57.7,56.3,30.84,SW,225,0.0,0.0,95,0.00,,,0.00,meteobridge,2014-09-15 14:36:00,
2014-09-15 10:41:00,58.3,56.3,30.83,SW,225,0.0,0.0,93,0.00,,,0.00,meteobridge,2014-09-15 14:41:00,
2014-09-15 10:46:00,58.6,55.9,30.83,SW,224,0.0,1.0,91,0.00,,,0.00,meteobridge,2014-09-15 14:46:00,
2014-09-15 10:51:00,59.2,56.5,30.83,SW,224,0.0,0.0,91,0.00,,,0.00,meteobridge,2014-09-15 14:51:00,
2014-09-15 10:56:00,59.4,56.1,30.83,SW,224,0.0,1.0,89,0.00,,,0.00,meteobridge,2014-09-15 14:56:00,
2014-09-15 11:01:00,59.7,56.5,30.83,SW,215,0.9,2.0,89,0.00,,,0.00,meteobridge,2014-09-15 15:01:00,
2014-09-15 11:06:00,60.3,56.7,30.82,SW,221,0.0,0.0,88,0.00,,,0.00,meteobridge,2014-09-15 15:06:00,
2014-09-15 11:11:00,60.6,57.4,30.82,SW,224,0.0,0.0,89,0.00,,,0.00,meteobridge,2014-09-15 15:11:00,
2014-09-15 11:16:00,60.6,56.5,30.82,SW,224,0.0,0.0,86,0.00,,,0.00,meteobridge,2014-09-15 15:16:00,
2014-09-15 11:21:00,61.0,56.1,30.82,SW,224,0.0,0.0,84,0.00,,,0.00,meteobridge,2014-09-15 15:21:00,
2014-09-15 11:26:00,61.3,56.1,30.82,SW,226,0.0,1.0,83,0.00,,,0.00,meteobridge,2014-09-15 15:26:00,
2014-09-15 11:28:00,61.5,56.7,30.82,SW,226,0.0,0.0,84,0.00,,,0.00,meteobridge,2014-09-15 15:28:00,
2014-09-15 11:33:00,62.1,57.6,30.81,SW,219,0.0,1.0,85,0.00,,,0.00,meteobridge,2014-09-15 15:33:00,
2014-09-15 11:38:00,62.4,55.8,30.81,SW,218,0.0,1.0,79,0.00,,,0.00,meteobridge,2014-09-15 15:38:00,
2014-09-15 11:43:00,62.8,54.7,30.81,SW,224,0.0,1.0,75,0.00,,,0.00,meteobridge,2014-09-15 15:43:00,
2014-09-15 11:48:00,63.1,54.7,30.81,SW,224,0.0,1.0,74,0.00,,,0.00,meteobridge,2014-09-15 15:48:00,
2014-09-15 11:53:00,63.3,53.8,30.80,SSW,210,0.9,2.0,71,0.00,,,0.00,meteobridge,2014-09-15 15:53:00,
2014-09-15 11:58:00,63.7,54.5,30.80,SW,217,0.0,0.0,72,0.00,,,0.00,meteobridge,2014-09-15 15:58:00,
2014-09-15 12:03:00,64.0,55.9,30.80,SW,222,0.0,1.0,75,0.00,,,0.00,meteobridge,2014-09-15 16:03:00,
2014-09-15 12:08:00,63.9,55.8,30.80,SW,225,0.0,0.0,75,0.00,,,0.00,meteobridge,2014-09-15 16:08:00,
2014-09-15 12:13:00,63.9,56.5,30.80,SW,224,0.0,0.0,77,0.00,,,0.00,meteobridge,2014-09-15 16:13:00,
2014-09-15 12:18:00,63.9,56.8,30.79,SW,226,0.0,0.0,78,0.00,,,0.00,meteobridge,2014-09-15 16:18:00,
2014-09-15 12:23:00,63.7,56.7,30.79,SW,226,0.0,0.0,78,0.00,,,0.00,meteobridge,2014-09-15 16:23:00,
2014-09-15 12:29:00,63.3,56.3,30.79,SW,227,0.0,0.0,78,0.00,,,0.00,meteobridge,2014-09-15 16:29:00,
2014-09-15 12:34:00,63.1,57.2,30.79,SW,227,0.0,0.0,81,0.00,,,0.00,meteobridge,2014-09-15 16:34:00,
2014-09-15 12:39:00,63.0,57.0,30.79,SW,227,0.0,0.0,81,0.00,,,0.00,meteobridge,2014-09-15 16:39:00,
2014-09-15 12:44:00,63.0,57.0,30.78,SW,227,0.0,0.0,81,0.00,,,0.00,meteobridge,2014-09-15 16:44:00,
2014-09-15 12:49:00,63.3,57.7,30.78,SW,227,0.0,0.0,82,0.00,,,0.00,meteobridge,2014-09-15 16:49:00,
2014-09-15 12:54:00,63.9,58.3,30.78,SW,227,0.0,0.0,82,0.00,,,0.00,meteobridge,2014-09-15 16:54:00,
2014-09-15 12:59:00,64.4,56.3,30.78,SW,221,0.0,0.0,75,0.00,,,0.00,meteobridge,2014-09-15 16:59:00,
2014-09-15 13:04:00,65.1,56.7,30.78,SW,221,0.0,0.0,74,0.00,,,0.00,meteobridge,2014-09-15 17:04:00,
2014-09-15 13:09:00,65.7,58.6,30.78,SW,221,0.0,0.0,78,0.00,,,0.00,meteobridge,2014-09-15 17:09:00,
2014-09-15 13:14:00,66.4,57.4,30.77,SSW,208,2.9,3.0,73,0.00,,,0.00,meteobridge,2014-09-15 17:14:00,
2014-09-15 13:19:00,66.7,56.7,30.77,SW,224,0.0,1.0,70,0.00,,,0.00,meteobridge,2014-09-15 17:19:00,
2014-09-15 13:24:00,66.7,56.7,30.77,SW,224,0.0,0.0,70,0.00,,,0.00,meteobridge,2014-09-15 17:24:00,
2014-09-15 13:29:00,67.3,56.3,30.77,SW,224,0.0,0.0,68,0.00,,,0.00,meteobridge,2014-09-15 17:29:00,
2014-09-15 13:34:00,67.6,55.9,30.76,SW,218,0.0,1.0,66,0.00,,,0.00,meteobridge,2014-09-15 17:34:00,
2014-09-15 13:39:00,67.6,57.0,30.76,SW,226,0.0,1.0,69,0.00,,,0.00,meteobridge,2014-09-15 17:39:00,
2014-09-15 13:44:00,67.6,57.0,30.76,SW,214,0.9,1.0,69,0.00,,,0.00,meteobridge,2014-09-15 17:44:00,
2014-09-15 13:49:00,68.4,58.3,30.76,SW,222,0.9,1.0,70,0.00,,,0.00,meteobridge,2014-09-15 17:49:00,
2014-09-15 13:54:00,69.3,55.8,30.76,SW,217,0.9,2.0,62,0.00,,,0.00,meteobridge,2014-09-15 17:54:00,
2014-09-15 13:59:00,70.0,57.2,30.76,SW,224,0.0,1.0,64,0.00,,,0.00,meteobridge,2014-09-15 17:59:00,
2014-09-15 14:04:00,70.2,56.5,30.76,SW,231,2.9,3.0,62,0.00,,,0.00,meteobridge,2014-09-15 18:04:00,
2014-09-15 14:09:00,69.4,56.3,30.76,SSW,207,2.9,3.0,63,0.00,,,0.00,meteobridge,2014-09-15 18:09:00,
2014-09-15 14:14:00,69.3,56.5,30.75,SW,225,0.0,0.0,64,0.00,,,0.00,meteobridge,2014-09-15 18:14:00,
2014-09-15 14:19:00,68.9,57.0,30.75,SW,229,0.0,0.0,66,0.00,,,0.00,meteobridge,2014-09-15 18:19:00,
2014-09-15 14:24:00,69.1,57.2,30.74,SW,226,0.0,0.0,66,0.00,,,0.00,meteobridge,2014-09-15 18:24:00,
2014-09-15 14:29:00,69.1,57.2,30.74,SW,226,0.0,0.0,66,0.00,,,0.00,meteobridge,2014-09-15 18:29:00,
2014-09-15 14:34:00,69.8,57.0,30.74,SSW,211,0.9,1.0,64,0.00,,,0.00,meteobridge,2014-09-15 18:34:00,
2014-09-15 14:40:00,70.2,58.3,30.74,SW,226,0.9,1.0,66,0.00,,,0.00,meteobridge,2014-09-15 18:40:00,
2014-09-15 14:45:00,70.7,57.6,30.73,SW,215,0.0,1.0,63,0.00,,,0.00,meteobridge,2014-09-15 18:45:00,
2014-09-15 14:49:00,71.2,59.4,30.73,SW,223,0.0,2.0,66,0.00,,,0.00,meteobridge,2014-09-15 18:49:00,
2014-09-15 14:55:00,71.6,58.3,30.73,SSW,207,2.0,2.0,63,0.00,,,0.00,meteobridge,2014-09-15 18:55:00,
2014-09-15 15:00:00,71.4,57.2,30.72,SW,226,0.0,1.0,61,0.00,,,0.00,meteobridge,2014-09-15 19:00:00,
2014-09-15 15:05:00,72.3,58.6,30.72,SW,215,0.9,2.0,62,0.00,,,0.00,meteobridge,2014-09-15 19:05:00,
2014-09-15 15:10:00,72.5,57.7,30.72,SW,217,0.0,3.0,60,0.00,,,0.00,meteobridge,2014-09-15 19:10:00,
2014-09-15 15:15:00,72.1,58.5,30.72,SW,223,0.0,1.0,62,0.00,,,0.00,meteobridge,2014-09-15 19:15:00,
2014-09-15 15:20:00,72.7,57.6,30.72,SW,216,0.0,1.0,59,0.00,,,0.00,meteobridge,2014-09-15 19:20:00,
2014-09-15 15:25:00,72.7,58.8,30.72,SW,234,2.0,2.0,62,0.00,,,0.00,meteobridge,2014-09-15 19:25:00,
2014-09-15 15:30:00,72.1,57.9,30.72,SW,219,0.0,4.0,61,0.00,,,0.00,meteobridge,2014-09-15 19:30:00,
2014-09-15 15:35:00,72.0,58.3,30.72,SW,226,0.9,1.0,62,0.00,,,0.00,meteobridge,2014-09-15 19:35:00,
2014-09-15 15:40:00,71.8,58.5,30.71,SW,233,0.9,1.0,63,0.00,,,0.00,meteobridge,2014-09-15 19:40:00,
2014-09-15 15:45:00,72.0,58.6,30.71,SSW,213,0.0,1.0,63,0.00,,,0.00,meteobridge,2014-09-15 19:45:00,
2014-09-15 15:50:00,72.1,58.5,30.71,SSW,213,0.0,2.0,62,0.00,,,0.00,meteobridge,2014-09-15 19:50:00,
2014-09-15 15:55:00,72.1,57.9,30.71,SW,219,0.0,3.0,61,0.00,,,0.00,meteobridge,2014-09-15 19:55:00,
2014-09-15 16:00:00,72.0,58.6,30.71,SW,214,0.0,2.0,63,0.00,,,0.00,meteobridge,2014-09-15 20:00:00,
2014-09-15 16:05:00,72.1,58.5,30.71,SW,223,0.0,4.0,62,0.00,,,0.00,meteobridge,2014-09-15 20:05:00,
2014-09-15 16:10:00,72.5,59.2,30.71,SW,221,0.0,1.0,63,0.00,,,0.00,meteobridge,2014-09-15 20:10:00,
2014-09-15 16:15:00,72.5,59.2,30.70,SW,230,0.9,3.0,63,0.00,,,0.00,meteobridge,2014-09-15 20:15:00,
2014-09-15 16:20:00,72.3,58.6,30.71,SW,220,2.0,2.0,62,0.00,,,0.00,meteobridge,2014-09-15 20:20:00,
2014-09-15 16:25:00,72.3,59.0,30.70,SW,224,0.0,0.0,63,0.00,,,0.00,meteobridge,2014-09-15 20:25:00,
2014-09-15 16:30:00,71.8,59.4,30.70,SW,224,0.0,0.0,65,0.00,,,0.00,meteobridge,2014-09-15 20:30:00,
2014-09-15 16:35:00,71.1,59.5,30.70,SW,224,0.0,0.0,67,0.00,,,0.00,meteobridge,2014-09-15 20:35:00,
2014-09-15 16:40:00,70.9,60.3,30.70,SW,218,0.0,1.0,69,0.00,,,0.00,meteobridge,2014-09-15 20:40:00,
2014-09-15 16:45:00,70.9,59.7,30.70,SW,224,0.0,1.0,68,0.00,,,0.00,meteobridge,2014-09-15 20:45:00,
2014-09-15 16:50:00,71.1,59.2,30.69,SW,219,0.0,1.0,66,0.00,,,0.00,meteobridge,2014-09-15 20:50:00,
2014-09-15 16:52:00,71.1,59.5,30.69,SW,221,0.0,0.0,67,0.00,,,0.00,meteobridge,2014-09-15 20:52:00,
2014-09-15 16:57:00,71.2,58.5,30.69,SW,218,0.0,4.0,64,0.00,,,0.00,meteobridge,2014-09-15 20:57:00,
2014-09-15 17:02:00,71.4,59.0,30.69,SW,224,0.0,0.0,65,0.00,,,0.00,meteobridge,2014-09-15 21:02:00,
2014-09-15 17:07:00,71.6,59.2,30.69,SW,224,0.0,0.0,65,0.00,,,0.00,meteobridge,2014-09-15 21:07:00,
2014-09-15 17:12:00,71.2,57.9,30.69,SSW,210,0.9,4.0,63,0.00,,,0.00,meteobridge,2014-09-15 21:12:00,
2014-09-15 17:17:00,70.9,59.4,30.69,SW,214,0.9,1.0,67,0.00,,,0.00,meteobridge,2014-09-15 21:17:00,
2014-09-15 17:22:00,70.5,59.4,30.69,South,191,0.0,1.0,68,0.00,,,0.00,meteobridge,2014-09-15 21:22:00,
2014-09-15 17:27:00,70.3,58.8,30.69,SW,219,0.0,0.0,67,0.00,,,0.00,meteobridge,2014-09-15 21:27:00,
2014-09-15 17:32:00,70.2,59.5,30.68,SW,221,0.0,0.0,69,0.00,,,0.00,meteobridge,2014-09-15 21:32:00,
2014-09-15 17:37:00,69.8,59.9,30.68,SW,219,0.0,0.0,71,0.00,,,0.00,meteobridge,2014-09-15 21:37:00,
2014-09-15 17:42:00,69.3,59.9,30.68,SW,229,0.0,1.0,72,0.00,,,0.00,meteobridge,2014-09-15 21:42:00,
2014-09-15 17:47:00,68.4,58.6,30.68,SW,229,0.0,0.0,71,0.00,,,0.00,meteobridge,2014-09-15 21:47:00,
2014-09-15 17:52:00,67.8,58.5,30.68,SW,231,0.0,0.0,72,0.00,,,0.00,meteobridge,2014-09-15 21:52:00,
2014-09-15 17:58:00,67.5,58.5,30.67,SW,227,0.0,0.0,73,0.00,,,0.00,meteobridge,2014-09-15 21:58:00,
2014-09-15 18:03:00,67.3,58.6,30.67,SW,227,0.0,0.0,74,0.00,,,0.00,meteobridge,2014-09-15 22:03:00,
2014-09-15 18:05:00,67.3,58.6,30.67,SW,227,0.0,0.0,74,0.00,,,0.00,meteobridge,2014-09-15 22:05:00,
2014-09-15 18:10:00,67.1,58.8,30.67,SW,228,0.0,0.0,75,0.00,,,0.00,meteobridge,2014-09-15 22:10:00,
2014-09-15 18:15:00,66.7,58.6,30.67,SW,228,0.0,0.0,75,0.00,,,0.00,meteobridge,2014-09-15 22:15:00,
2014-09-15 18:20:00,66.6,58.8,30.67,SW,228,0.0,0.0,76,0.00,,,0.00,meteobridge,2014-09-15 22:20:00,
2014-09-15 18:25:00,66.2,58.1,30.67,SW,228,0.0,0.0,75,0.00,,,0.00,meteobridge,2014-09-15 22:25:00,
2014-09-15 18:30:00,66.2,58.5,30.67,SW,228,0.0,0.0,76,0.00,,,0.00,meteobridge,2014-09-15 22:30:00,
2014-09-15 18:36:00,66.2,58.5,30.66,SW,228,0.0,0.0,76,0.00,,,0.00,meteobridge,2014-09-15 22:36:00,
2014-09-15 18:41:00,66.0,58.3,30.66,SW,229,0.0,0.0,76,0.00,,,0.00,meteobridge,2014-09-15 22:41:00,
2014-09-15 18:46:00,65.8,57.7,30.66,SW,229,0.0,0.0,75,0.00,,,0.00,meteobridge,2014-09-15 22:46:00,
2014-09-15 18:51:00,65.8,57.7,30.66,SW,229,0.0,0.0,75,0.00,,,0.00,meteobridge,2014-09-15 22:51:00,
2014-09-15 18:56:00,65.7,57.9,30.66,SW,229,0.0,0.0,76,0.00,,,0.00,meteobridge,2014-09-15 22:56:00,
2014-09-15 19:01:00,65.3,57.6,30.66,SW,231,0.0,0.0,76,0.00,,,0.00,meteobridge,2014-09-15 23:01:00,
2014-09-15 19:06:00,65.1,57.4,30.66,SW,231,0.0,0.0,76,0.00,,,0.00,meteobridge,2014-09-15 23:06:00,
2014-09-15 19:11:00,65.1,57.4,30.67,SW,231,0.0,0.0,76,0.00,,,0.00,meteobridge,2014-09-15 23:11:00,
2014-09-15 19:16:00,64.9,57.6,30.67,SW,231,0.0,0.0,77,0.00,,,0.00,meteobridge,2014-09-15 23:16:00,
2014-09-15 19:21:00,64.8,57.7,30.67,SW,231,0.0,0.0,78,0.00,,,0.00,meteobridge,2014-09-15 23:21:00,
2014-09-15 19:26:00,64.8,57.4,30.66,SW,231,0.0,0.0,77,0.00,,,0.00,meteobridge,2014-09-15 23:26:00,
2014-09-15 19:31:00,64.8,57.4,30.66,SW,232,0.0,0.0,77,0.00,,,0.00,meteobridge,2014-09-15 23:31:00,
2014-09-15 19:36:00,64.8,57.4,30.66,SW,232,0.0,0.0,77,0.00,,,0.00,meteobridge,2014-09-15 23:36:00,
2014-09-15 19:41:00,64.8,57.4,30.66,SW,236,0.0,0.0,77,0.00,,,0.00,meteobridge,2014-09-15 23:41:00,
2014-09-15 19:46:00,64.6,57.2,30.66,SW,235,0.0,0.0,77,0.00,,,0.00,meteobridge,2014-09-15 23:46:00,
2014-09-15 19:51:00,64.8,57.0,30.66,SW,232,0.0,2.0,76,0.00,,,0.00,meteobridge,2014-09-15 23:51:00,
2014-09-15 19:56:00,64.9,57.2,30.66,SW,235,0.0,0.0,76,0.00,,,0.00,meteobridge,2014-09-15 23:56:00,
2014-09-15 20:01:00,64.9,57.2,30.66,SW,231,0.0,2.0,76,0.00,,,0.00,meteobridge,2014-09-16 00:01:00,
2014-09-15 20:06:00,64.8,57.4,30.65,SW,232,0.0,0.0,77,0.00,,,0.00,meteobridge,2014-09-16 00:06:00,
2014-09-15 20:08:00,64.8,57.4,30.65,SW,233,0.0,0.0,77,0.00,,,0.00,meteobridge,2014-09-16 00:08:00,
2014-09-15 20:13:00,64.6,57.2,30.66,SW,232,0.0,0.0,77,0.00,,,0.00,meteobridge,2014-09-16 00:13:00,
2014-09-15 20:18:00,64.6,57.2,30.65,SW,234,0.0,0.0,77,0.00,,,0.00,meteobridge,2014-09-16 00:18:00,
2014-09-15 20:23:00,64.6,57.2,30.65,SW,234,0.0,0.0,77,0.00,,,0.00,meteobridge,2014-09-16 00:23:00,
2014-09-15 20:28:00,64.6,57.2,30.65,SW,234,0.0,0.0,77,0.00,,,0.00,meteobridge,2014-09-16 00:28:00,
2014-09-15 20:32:00,64.6,57.2,30.66,SW,234,0.0,0.0,77,0.00,,,0.00,meteobridge,2014-09-16 00:32:00,
2014-09-15 20:37:00,64.6,57.6,30.66,SW,233,2.0,2.0,78,0.00,,,0.00,meteobridge,2014-09-16 00:37:00,
2014-09-15 20:43:00,64.2,57.2,30.66,SW,233,0.0,0.0,78,0.00,,,0.00,meteobridge,2014-09-16 00:43:00,
2014-09-15 20:48:00,64.2,57.2,30.66,SW,232,0.9,2.0,78,0.00,,,0.00,meteobridge,2014-09-16 00:48:00,
2014-09-15 20:53:00,64.2,57.6,30.65,SW,233,0.0,2.0,79,0.00,,,0.00,meteobridge,2014-09-16 00:53:00,
2014-09-15 20:58:00,64.2,57.2,30.65,SW,233,0.0,1.0,78,0.00,,,0.00,meteobridge,2014-09-16 00:58:00,
2014-09-15 21:03:00,64.2,57.2,30.65,SW,233,2.0,2.0,78,0.00,,,0.00,meteobridge,2014-09-16 01:03:00,
2014-09-15 21:08:00,64.2,57.2,30.65,SW,233,0.0,2.0,78,0.00,,,0.00,meteobridge,2014-09-16 01:08:00,
2014-09-15 21:13:00,64.2,57.2,30.65,SW,233,0.9,1.0,78,0.00,,,0.00,meteobridge,2014-09-16 01:13:00,
2014-09-15 21:18:00,64.4,57.4,30.65,SW,231,2.0,2.0,78,0.00,,,0.00,meteobridge,2014-09-16 01:18:00,
2014-09-15 21:23:00,64.4,57.4,30.65,SW,236,0.9,3.0,78,0.00,,,0.00,meteobridge,2014-09-16 01:23:00,
2014-09-15 21:28:00,64.2,57.6,30.65,SW,236,0.9,2.0,79,0.00,,,0.00,meteobridge,2014-09-16 01:28:00,
2014-09-15 21:33:00,64.0,57.4,30.64,WSW,237,2.0,2.0,79,0.00,,,0.00,meteobridge,2014-09-16 01:33:00,
2014-09-15 21:38:00,64.0,57.7,30.64,SW,229,0.9,2.0,80,0.00,,,0.00,meteobridge,2014-09-16 01:38:00,
2014-09-15 21:43:00,63.9,57.6,30.63,SW,232,0.9,2.0,80,0.00,,,0.00,meteobridge,2014-09-16 01:43:00,
2014-09-15 21:48:00,63.7,57.4,30.63,SW,234,0.9,3.0,80,0.00,,,0.00,meteobridge,2014-09-16 01:48:00,
2014-09-15 21:53:00,63.7,57.7,30.63,SW,234,2.0,3.0,81,0.00,,,0.00,meteobridge,2014-09-16 01:53:00,
2014-09-15 21:58:00,63.5,57.6,30.63,SW,231,0.9,2.0,81,0.00,,,0.00,meteobridge,2014-09-16 01:58:00,
2014-09-15 22:03:00,63.5,57.6,30.63,SW,232,0.9,2.0,81,0.00,,,0.00,meteobridge,2014-09-16 02:03:00,
2014-09-15 22:08:00,63.5,57.9,30.63,SW,231,0.9,2.0,82,0.00,,,0.00,meteobridge,2014-09-16 02:08:00,
2014-09-15 22:13:00,63.3,57.7,30.63,SW,236,0.9,3.0,82,0.00,,,0.00,meteobridge,2014-09-16 02:13:00,
2014-09-15 22:15:00,63.3,57.7,30.63,SW,234,0.9,2.0,82,0.00,,,0.00,meteobridge,2014-09-16 02:15:00,
2014-09-15 22:20:00,63.5,57.9,30.63,SW,232,0.9,2.0,82,0.00,,,0.00,meteobridge,2014-09-16 02:20:00,